ECMWFNIL_prec_prec_162.txt.gz
QPF
0.00 0.00 0.00 0.00 0.00 0.03 0.02 0.00 0.00 0.00 0.00 0.00 0.00 0.00 0.00 0.00 0.00 0.00 0.00 0.00 0.00 0.00 0.00 0.00 0.00 0.00 0.00 0.00 0.00 0.00 0.00 0.00 0.00 0.00 0.00 0.00 0.00 0.00 0.00 0.00 0.00 0.00
0.01 0.01 0.00 0.01 0.00 0.00 0.02 0.02 0.00 0.00 0.00 0.00 0.00 0.00 0.00 0.00 0.00 0.00 0.00 0.00 0.00 0.00 0.00 0.00 0.00 0.00 0.00 0.00 0.00 0.00 0.00 0.00 0.00 0.00 0.00 0.00 0.00 0.00 0.00 0.00 0.00 0.00
0.00 0.02 0.02 0.01 0.01 0.00 0.01 0.02 0.04 0.00 0.00 0.00 0.00 0.00 0.00 0.00 0.00 0.00 0.00 0.00 0.00 0.00 0.00 0.00 0.00 0.00 0.00 0.00 0.00 0.00 0.00 0.00 0.00 0.00 0.00 0.00 0.00 0.00 0.00 0.00 0.00 0.00
0.00 0.00 0.01 0.02 0.00 0.02 0.06 0.01 0.12 0.04 0.00 0.00 0.00 0.00 0.00 0.00 0.00 0.00 0.00 0.00 0.00 0.00 0.00 0.01 0.00 0.00 0.00 0.00 0.01 0.01 0.00 0.00 0.00 0.00 0.00 0.00 0.00 0.00 0.00 0.00 0.00 0.00
0.00 0.00 0.01 0.02 0.02 0.01 0.03 0.07 0.03 0.07 0.04 0.00 0.00 0.00 0.00 0.00 0.01 0.01 0.00 0.01 0.01 0.01 0.01 0.01 0.01 0.01 0.01 0.01 0.00 0.01 0.02 0.01 0.00 0.00 0.01 0.01 0.01 0.01 0.00 0.01 0.00 0.00
0.00 0.01 0.01 0.09 0.03 0.01 0.01 0.00 0.04 0.09 0.07 0.03 0.03 0.01 0.00 0.00 0.00 0.00 0.01 0.01 0.00 0.01 0.02 0.01 0.01 0.01 0.01 0.01 0.01 0.01 0.01 0.01 0.01 0.01 0.01 0.01 0.01 0.01 0.01 0.01 0.01 0.00
0.00 0.00 0.01 0.01 0.06 0.25 0.08 0.03 0.00 0.00 0.01 0.15 0.02 0.03 0.00 0.00 0.00 0.00 0.00 0.02 0.01 0.13 0.07 0.01 0.01 0.01 0.01 0.01 0.01 0.01 0.01 0.01 0.01 0.01 0.01 0.01 0.00 0.01 0.01 0.01 0.01 0.00
0.01 0.04 0.01 0.04 0.05 0.26 0.31 0.17 0.16 0.01 0.00 0.01 0.04 0.03 0.03 0.01 0.00 0.00 0.00 0.00 0.00 0.01 0.00 0.03 0.02 0.01 0.01 0.01 0.01 0.00 0.01 0.01 0.01 0.01 0.01 0.01 0.01 0.01 0.01 0.01 0.01 0.01
0.02 0.03 0.04 0.01 0.01 0.05 0.22 0.34 0.41 0.29 0.41 0.32 0.30 0.29 0.16 0.02 0.00 0.01 0.00 0.00 0.03 0.22 0.03 0.06 0.01 0.01 0.01 0.01 0.01 0.00 0.00 0.00 0.01 0.01 0.01 0.01 0.01 0.01 0.01 0.01 0.01 0.01
0.03 0.05 0.02 0.04 0.04 0.01 0.01 0.05 0.03 0.04 0.03 0.03 0.02 0.02 0.04 0.05 0.03 0.00 0.00 0.00 0.00 0.01 0.02 0.03 0.02 0.00 0.00 0.00 0.01 0.01 0.00 0.00 0.01 0.01 0.01 0.01 0.01 0.00 0.00 0.01 0.01 0.01
0.04 0.01 0.03 0.02 0.03 0.02 0.02 0.05 0.14 0.05 0.02 0.02 0.02 0.03 0.04 0.01 0.01 0.01 0.00 0.00 0.00 0.00 0.00 0.00 0.00 0.00 0.00 0.00 0.00 0.00 0.00 0.00 0.00 0.00 0.01 0.01 0.01 0.01 0.00 0.01 0.01 0.01
0.03 0.02 0.01 0.01 0.02 0.01 0.01 0.03 0.06 0.10 0.02 0.02 0.02 0.06 0.05 0.06 0.03 0.01 0.00 0.00 0.00 0.00 0.00 0.00 0.00 0.01 0.04 0.00 0.00 0.00 0.00 0.00 0.00 0.00 0.00 0.01 0.01 0.01 0.01 0.00 0.01 0.01
0.05 0.03 0.05 0.03 0.01 0.01 0.02 0.01 0.03 0.02 0.04 0.03 0.05 0.02 0.05 0.02 0.02 0.02 0.02 0.01 0.00 0.00 0.00 0.01 0.00 0.00 0.00 0.00 0.00 0.00 0.00 0.00 0.00 0.00 0.00 0.01 0.01 0.01 0.01 0.01 0.01 0.01
0.13 0.08 0.14 0.11 0.02 0.02 0.03 0.01 0.03 0.02 0.03 0.09 0.12 0.17 0.02 0.01 0.03 0.02 0.02 0.01 0.00 0.00 0.00 0.00 0.00 0.00 0.00 0.00 0.00 0.00 0.00 0.00 0.00 0.00 0.00 0.00 0.00 0.00 0.01 0.00 0.00 0.01
0.19 0.22 0.24 0.20 0.04 0.06 0.08 0.14 0.07 0.03 0.03 0.03 0.04 0.11 0.14 0.06 0.22 0.04 0.02 0.01 0.01 0.00 0.00 0.00 0.00 0.00 0.00 0.00 0.00 0.00 0.00 0.00 0.00 0.00 0.00 0.00 0.00 0.00 0.00 0.00 0.00 0.01
0.16 0.20 0.15 0.10 0.07 0.01 0.01 0.02 0.07 0.10 0.03 0.02 0.02 0.04 0.03 0.06 0.05 0.16 0.03 0.03 0.01 0.01 0.01 0.00 0.00 0.01 0.00 0.02 0.01 0.00 0.02 0.00 0.00 0.00 0.00 0.00 0.00 0.00 0.00 0.00 0.00 0.01
0.13 0.03 0.13 0.20 0.10 0.06 0.03 0.03 0.03 0.02 0.01 0.02 0.02 0.01 0.00 0.00 0.01 0.01 0.01 0.01 0.00 0.00 0.01 0.00 0.00 0.00 0.00 0.01 0.00 0.01 0.00 0.00 0.00 0.00 0.00 0.00 0.01 0.00 0.00 0.00 0.00 0.00
0.15 0.14 0.11 0.10 0.08 0.09 0.03 0.03 0.13 0.10 0.14 0.04 0.05 0.02 0.01 0.01 0.00 0.00 0.01 0.01 0.01 0.00 0.00 0.00 0.00 0.00 0.00 0.00 0.05 0.08 0.02 0.01 0.00 0.00 0.00 0.00 0.00 0.00 0.01 0.00 0.00 0.00
0.45 0.28 0.13 0.14 0.22 0.10 0.18 0.11 0.18 0.12 0.16 0.15 0.06 0.02 0.03 0.01 0.01 0.01 0.00 0.00 0.01 0.01 0.01 0.01 0.02 0.00 0.00 0.00 0.00 0.04 0.06 0.01 0.01 0.00 0.00 0.00 0.00 0.00 0.00 0.00 0.00 0.01
0.12 0.33 0.24 0.14 0.25 0.17 0.15 0.23 0.15 0.11 0.14 0.13 0.07 0.09 0.06 0.04 0.03 0.01 0.01 0.01 0.01 0.00 0.00 0.00 0.00 0.01 0.00 0.00 0.03 0.00 0.02 0.05 0.02 0.00 0.00 0.00 0.00 0.00 0.00 0.01 0.00 0.00
0.05 0.10 0.31 0.12 0.18 0.11 0.15 0.23 0.21 0.08 0.10 0.08 0.09 0.04 0.03 0.03 0.03 0.03 0.03 0.01 0.01 0.01 0.00 0.00 0.00 0.00 0.00 0.00 0.01 0.00 0.00 0.01 0.00 0.00 0.00 0.01 0.01 0.00 0.02 0.00 0.00 0.00
0.01 0.05 0.03 0.22 0.16 0.16 0.10 0.06 0.08 0.14 0.15 0.09 0.18 0.14 0.08 0.09 0.08 0.07 0.08 0.05 0.02 0.02 0.02 0.02 0.01 0.00 0.00 0.00 0.00 0.00 0.00 0.00 0.00 0.00 0.00 0.00 0.00 0.00 0.00 0.00 0.01 0.00
0.00 0.00 0.01 0.07 0.06 0.09 0.22 0.09 0.14 0.17 0.11 0.09 0.11 0.09 0.12 0.15 0.13 0.04 0.03 0.02 0.02 0.01 0.01 0.01 0.01 0.00 0.00 0.00 0.00 0.00 0.00 0.00 0.00 0.00 0.00 0.00 0.00 0.00 0.00 0.00 0.00 0.00
0.00 0.00 0.00 0.01 0.03 0.02 0.02 0.14 0.34 0.40 0.22 0.14 0.10 0.09 0.05 0.05 0.09 0.10 0.08 0.05 0.04 0.02 0.01 0.01 0.00 0.00 0.00 0.00 0.00 0.00 0.00 0.00 0.00 0.01 0.00 0.00 0.00 0.00 0.00 0.00 0.00 0.00
0.00 0.00 0.00 0.00 0.00 0.02 0.01 0.03 0.05 0.04 0.12 0.19 0.18 0.16 0.10 0.04 0.04 0.11 0.07 0.06 0.10 0.04 0.00 0.02 0.01 0.00 0.00 0.01 0.01 0.00 0.00 0.01 0.00 0.00 0.00 0.00 0.00 0.00 0.00 0.00 0.00 0.00
0.00 0.00 0.00 0.00 0.00 0.00 0.00 0.01 0.01 0.02 0.01 0.04 0.13 0.17 0.14 0.09 0.10 0.05 0.05 0.04 0.02 0.02 0.01 0.00 0.01 0.00 0.00 0.00 0.01 0.01 0.00 0.00 0.00 0.00 0.00 0.00 0.00 0.00 0.00 0.00 0.00 0.00

ECMWFNIL_prec_prec_168.txt.gz
QPF
0.04 0.18 0.09 0.56 0.50 0.18 0.18 0.29 0.29 0.41 0.32 0.31 0.32 0.30 0.10 0.00 0.00 0.00 0.00 0.00 0.00 0.00 0.00 0.00 0.00 0.00 0.00 0.00 0.00 0.00 0.00 0.00 0.00 0.00 0.00 0.00 0.00 0.00 0.00 0.00 0.00 0.00
0.08 0.09 0.16 0.31 0.49 0.59 0.66 0.58 0.43 0.39 0.28 0.28 0.19 0.18 0.12 0.04 0.00 0.00 0.00 0.00 0.00 0.00 0.00 0.00 0.00 0.00 0.00 0.00 0.00 0.00 0.00 0.00 0.00 0.00 0.00 0.00 0.00 0.00 0.00 0.00 0.00 0.00
0.06 0.17 0.17 0.29 0.46 0.23 0.04 0.03 0.21 0.26 0.29 0.07 0.05 0.07 0.06 0.06 0.01 0.01 0.00 0.00 0.00 0.00 0.00 0.00 0.00 0.00 0.00 0.00 0.00 0.00 0.00 0.00 0.00 0.00 0.00 0.00 0.00 0.00 0.00 0.00 0.00 0.00
0.07 0.10 0.13 0.09 0.28 0.39 0.21 0.07 0.11 0.19 0.30 0.31 0.21 0.10 0.07 0.16 0.08 0.01 0.01 0.00 0.00 0.00 0.00 0.00 0.00 0.01 0.00 0.00 0.00 0.00 0.00 0.00 0.00 0.00 0.00 0.00 0.00 0.00 0.00 0.00 0.00 0.00
0.03 0.05 0.10 0.10 0.19 0.41 0.71 0.69 0.47 0.41 0.30 0.29 0.39 0.45 0.50 0.35 0.36 0.07 0.01 0.01 0.01 0.01 0.01 0.01 0.01 0.01 0.01 0.01 0.00 0.00 0.00 0.00 0.00 0.00 0.00 0.01 0.00 0.00 0.00 0.00 0.00 0.00
0.02 0.11 0.11 0.20 0.19 0.40 0.59 0.40 0.23 0.35 0.57 0.42 0.91 0.99 1.21 0.84 0.76 0.59 0.18 0.10 0.04 0.02 0.03 0.02 0.02 0.01 0.01 0.00 0.00 0.00 0.01 0.00 0.00 0.00 0.00 0.00 0.00 0.00 0.00 0.00 0.00 0.00
0.02 0.05 0.06 0.03 0.15 0.38 1.13 1.06 0.59 0.96 0.65 0.55 1.10 1.10 0.91 1.34 1.40 1.64 1.13 0.76 0.36 0.33 0.12 0.04 0.02 0.02 0.01 0.01 0.01 0.01 0.01 0.01 0.00 0.00 0.00 0.00 0.00 0.00 0.00 0.00 0.00 0.00
0.00 0.03 0.01 0.02 0.06 0.28 0.82 1.18 1.36 1.73 0.81 0.24 0.86 1.31 0.86 0.77 0.50 0.60 0.37 0.69 0.52 0.35 0.39 0.24 0.23 0.47 0.44 0.36 0.23 0.07 0.03 0.01 0.01 0.01 0.00 0.00 0.00 0.00 0.00 0.00 0.00 0.00
0.07 0.06 0.05 0.02 0.05 0.16 0.42 0.96 0.95 0.85 0.76 0.58 0.66 0.65 0.41 0.32 0.35 0.47 0.43 0.26 0.42 0.76 1.07 1.24 0.94 0.66 0.51 0.50 0.31 0.23 0.15 0.05 0.00 0.00 0.01 0.01 0.00 0.00 0.00 0.00 0.00 0.00
0.05 0.02 0.12 0.05 0.05 0.18 0.66 1.32 1.03 0.73 0.26 0.31 0.33 0.60 0.28 0.16 0.15 0.13 0.37 0.30 0.25 0.25 0.36 0.47 0.30 0.39 0.26 0.27 0.15 0.24 0.34 0.33 0.24 0.13 0.07 0.01 0.00 0.00 0.00 0.00 0.00 0.00
0.04 0.03 0.08 0.14 0.09 0.21 0.70 0.51 0.67 0.77 0.52 0.33 0.35 0.35 0.63 0.23 0.25 0.19 0.12 0.27 0.19 0.14 0.26 0.12 0.06 0.25 0.32 0.30 0.32 0.27 0.20 0.16 0.12 0.10 0.15 0.02 0.01 0.00 0.00 0.00 0.00 0.00
0.01 0.02 0.05 0.07 0.09 0.11 0.56 0.87 0.81 0.69 0.77 0.36 0.23 0.23 0.25 0.06 0.03 0.02 0.03 0.04 0.03 0.07 0.21 0.13 0.11 0.08 0.12 0.14 0.24 0.32 0.26 0.19 0.15 0.11 0.02 0.06 0.01 0.01 0.00 0.00 0.00 0.00
0.02 0.01 0.04 0.02 0.06 0.09 0.49 0.95 0.84 0.37 0.26 0.09 0.10 0.18 0.06 0.09 0.09 0.11 0.02 0.02 0.02 0.03 0.13 0.19 0.12 0.39 0.36 0.14 0.03 0.04 0.06 0.06 0.11 0.10 0.10 0.12 0.02 0.00 0.00 0.00 0.00 0.00
0.01 0.02 0.07 0.10 0.16 0.22 0.32 0.96 1.18 0.87 0.32 0.35 0.31 0.34 0.08 0.08 0.08 0.05 0.02 0.01 0.02 0.01 0.03 0.18 0.07 0.01 0.01 0.06 0.07 0.10 0.13 0.19 0.20 0.18 0.14 0.15 0.16 0.08 0.04 0.00 0.00 0.00
0.02 0.01 0.02 0.12 0.11 0.17 0.15 0.83 1.03 1.08 0.78 0.28 0.55 0.49 0.29 0.12 0.07 0.08 0.03 0.02 0.01 0.01 0.07 0.13 0.11 0.01 0.02 0.02 0.01 0.00 0.02 0.03 0.04 0.10 0.15 0.16 0.08 0.10 0.08 0.06 0.00 0.00
0.01 0.02 0.03 0.03 0.06 0.15 0.17 0.46 1.02 0.28 0.59 0.93 0.84 0.38 0.20 0.36 0.43 0.55 0.58 0.24 0.14 0.05 0.09 0.17 0.30 0.49 0.03 0.00 0.00 0.02 0.01 0.02 0.00 0.00 0.01 0.04 0.03 0.05 0.06 0.02 0.01 0.01
0.09 0.03 0.00 0.02 0.07 0.18 0.19 0.31 0.86 0.67 0.48 0.40 0.41 0.61 0.63 0.48 0.31 0.52 0.49 0.60 0.41 0.43 0.64 0.46 0.24 0.34 0.19 0.01 0.00 0.00 0.01 0.00 0.01 0.00 0.00 0.00 0.01 0.01 0.02 0.01 0.01 0.00
0.07 0.04 0.04 0.04 0.03 0.08 0.29 0.66 0.73 0.63 0.46 0.44 0.43 0.44 0.60 0.71 0.70 0.55 0.64 0.56 0.53 0.50 0.49 0.38 0.49 0.52 0.47 0.39 0.11 0.00 0.00 0.02 0.03 0.01 0.01 0.02 0.02 0.01 0.03 0.06 0.01 0.01
0.20 0.02 0.02 0.05 0.19 0.06 0.25 0.42 0.71 0.88 0.39 0.47 0.40 0.51 0.72 0.70 0.15 0.49 0.88 0.75 0.45 0.39 0.59 0.47 0.41 0.52 0.76 0.97 0.54 0.13 0.00 0.00 0.00 0.08 0.12 0.03 0.02 0.01 0.00 0.00 0.00 0.00
0.10 0.07 0.01 0.01 0.08 0.12 0.27 0.33 0.67 0.83 1.02 0.70 0.85 0.76 0.51 0.85 0.92 0.70 0.55 0.93 0.54 0.21 0.25 0.28 0.37 0.39 0.34 0.35 0.11 0.11 0.04 0.00 0.00 0.01 0.00 0.00 0.01 0.01 0.01 0.00 0.00 0.00
0.04 0.01 0.01 0.01 0.02 0.04 0.03 0.19 0.24 0.64 0.55 0.50 0.40 0.46 0.53 0.83 0.90 1.10 1.19 1.05 0.78 0.53 0.47 0.50 0.46 0.42 0.58 0.62 0.57 0.52 0.28 0.12 0.02 0.01 0.01 0.00 0.00 0.01 0.01 0.01 0.00 0.01
0.00 0.01 0.03 0.00 0.01 0.03 0.02 0.06 0.15 0.20 0.22 0.72 0.34 0.27 0.33 0.47 0.46 0.42 0.39 0.44 0.68 1.05 0.60 0.56 0.55 0.43 0.44 0.55 0.61 0.67 0.86 0.40 0.08 0.03 0.07 0.03 0.01 0.00 0.00 0.00 0.00 0.00
0.00 0.00 0.00 0.02 0.02 0.01 0.03 0.04 0.10 0.19 0.35 0.42 0.73 0.80 0.60 0.48 0.45 0.38 0.53 0.57 0.56 0.53 0.66 0.62 0.53 0.42 0.42 0.45 0.48 0.51 0.90 0.65 0.63 0.61 0.92 0.58 0.58 0.41 0.33 0.08 0.01 0.00
0.00 0.00 0.00 0.00 0.00 0.00 0.01 0.01 0.01 0.03 0.23 0.46 0.44 0.41 0.52 0.70 0.43 0.64 0.66 0.68 0.68 0.54 0.44 0.40 0.70 0.53 0.36 0.34 0.37 0.21 0.09 0.15 0.31 0.39 0.54 0.94 0.65 0.47 0.40 0.32 0.26 0.20
0.00 0.00 0.00 0.00 0.00 0.00 0.00 0.02 0.03 0.02 0.04 0.11 0.15 0.15 0.42 0.57 0.86 0.36 0.37 0.22 0.19 0.25 0.32 0.35 0.39 0.32 0.20 0.16 0.22 0.16 0.14 0.08 0.05 0.05 0.18 0.16 0.16 0.15 0.29 0.31 0.48 0.71
0.00 0.00 0.00 0.00 0.00 0.00 0.00 0.00 0.05 0.01 0.03 0.08 0.04 0.12 0.19 0.12 0.32 0.58 0.54 0.39 0.44 0.14 0.24 0.08 0.15 0.22 0.19 0.25 0.27 0.16 0.13 0.15 0.21 0.10 0.07 0.04 0.03 0.02 0.03 0.10 0.24 0.46

ECMWFNIL_prec_prec_174.txt.gz
QPF
0.00 0.00 0.00 0.00 0.00 0.00 0.00 0.00 0.00 0.00 0.00 0.01 0.04 0.07 0.12 0.11 0.06 0.05 0.03 0.03 0.02 0.01 0.01 0.01 0.01 0.01 0.01 0.01 0.00 0.00 0.00 0.00 0.00 0.00 0.00 0.00 0.00 0.00 0.00 0.00 0.00 0.00
0.00 0.00 0.00 0.00 0.00 0.00 0.00 0.00 0.00 0.00 0.00 0.00 0.01 0.04 0.07 0.16 0.22 0.25 0.14 0.05 0.03 0.02 0.01 0.01 0.01 0.01 0.01 0.01 0.01 0.01 0.00 0.00 0.00 0.00 0.00 0.00 0.00 0.00 0.00 0.00 0.00 0.00
0.00 0.00 0.00 0.00 0.00 0.00 0.00 0.00 0.00 0.00 0.00 0.00 0.02 0.04 0.05 0.06 0.12 0.18 0.13 0.24 0.19 0.08 0.12 0.03 0.01 0.01 0.01 0.01 0.01 0.01 0.00 0.00 0.00 0.00 0.00 0.00 0.00 0.00 0.00 0.00 0.00 0.00
0.00 0.00 0.00 0.00 0.00 0.00 0.00 0.00 0.02 0.03 0.02 0.02 0.03 0.03 0.05 0.05 0.18 0.25 0.18 0.25 0.45 0.20 0.27 0.25 0.19 0.32 0.37 0.26 0.27 0.18 0.03 0.02 0.01 0.00 0.01 0.00 0.00 0.00 0.00 0.00 0.00 0.00
0.00 0.00 0.00 0.00 0.00 0.00 0.00 0.00 0.00 0.00 0.01 0.01 0.01 0.03 0.05 0.07 0.18 0.58 0.53 0.35 0.32 0.40 0.31 0.35 0.21 0.15 0.13 0.18 0.20 0.18 0.12 0.15 0.12 0.12 0.13 0.08 0.07 0.06 0.01 0.00 0.00 0.00
0.00 0.00 0.00 0.00 0.01 0.00 0.00 0.00 0.00 0.00 0.00 0.00 0.00 0.01 0.02 0.16 0.11 0.24 0.47 0.47 0.34 0.36 0.36 0.29 0.37 0.25 0.25 0.20 0.22 0.31 0.17 0.16 0.05 0.10 0.09 0.08 0.08 0.04 0.01 0.00 0.00 0.00
0.00 0.00 0.00 0.00 0.00 0.00 0.00 0.00 0.00 0.00 0.00 0.01 0.00 0.00 0.01 0.02 0.05 0.10 0.22 0.26 0.43 0.56 0.65 0.45 0.34 0.45 0.35 0.34 0.42 0.19 0.07 0.13 0.06 0.11 0.07 0.01 0.01 0.01 0.00 0.00 0.00 0.00
0.00 0.00 0.00 0.01 0.03 0.01 0.01 0.00 0.00 0.00 0.01 0.01 0.01 0.00 0.01 0.02 0.04 0.04 0.11 0.11 0.11 0.11 0.16 0.27 0.49 0.28 0.15 0.15 0.14 0.09 0.09 0.08 0.07 0.01 0.01 0.01 0.01 0.00 0.00 0.00 0.00 0.00
0.00 0.00 0.00 0.00 0.00 0.02 0.01 0.00 0.01 0.01 0.05 0.04 0.12 0.21 0.02 0.03 0.03 0.05 0.22 0.32 0.23 0.18 0.22 0.19 0.37 0.35 0.29 0.24 0.10 0.08 0.06 0.05 0.02 0.01 0.01 0.01 0.00 0.00 0.00 0.00 0.00 0.00
0.00 0.00 0.00 0.00 0.00 0.00 0.04 0.06 0.06 0.13 0.14 0.08 0.27 0.20 0.02 0.03 0.03 0.04 0.18 0.23 0.40 0.30 0.28 0.35 0.56 0.45 0.53 0.30 0.24 0.12 0.07 0.05 0.03 0.02 0.01 0.01 0.00 0.00 0.00 0.00 0.00 0.00
0.00 0.00 0.00 0.00 0.00 0.00 0.01 0.01 0.03 0.08 0.01 0.05 0.21 0.27 0.05 0.02 0.17 0.16 0.22 0.50 0.47 0.27 0.29 0.29 0.25 0.21 0.32 0.31 0.19 0.16 0.12 0.06 0.06 0.02 0.02 0.01 0.00 0.00 0.00 0.00 0.00 0.00
0.00 0.00 0.00 0.00 0.00 0.01 0.01 0.01 0.08 0.01 0.01 0.08 0.00 0.10 0.11 0.02 0.01 0.03 0.07 0.19 0.12 0.04 0.06 0.11 0.13 0.15 0.17 0.20 0.22 0.26 0.31 0.27 0.18 0.17 0.04 0.01 0.01 0.00 0.00 0.00 0.00 0.00
0.00 0.00 0.00 0.00 0.01 0.01 0.01 0.01 0.02 0.04 0.00 0.00 0.01 0.00 0.00 0.00 0.01 0.01 0.02 0.07 0.23 0.12 0.17 0.07 0.08 0.14 0.16 0.29 0.51 0.41 0.33 0.32 0.25 0.31 0.18 0.13 0.03 0.01 0.00 0.00 0.00 0.00
0.00 0.00 0.00 0.00 0.00 0.01 0.01 0.01 0.00 0.02 0.00 0.00 0.02 0.02 0.00 0.00 0.00 0.00 0.01 0.02 0.03 0.04 0.06 0.10 0.12 0.40 0.26 0.17 0.23 0.26 0.29 0.24 0.33 0.26 0.11 0.15 0.08 0.05 0.01 0.01 0.00 0.00
0.00 0.00 0.00 0.00 0.01 0.02 0.05 0.01 0.01 0.00 0.00 0.00 0.00 0.01 0.00 0.01 0.01 0.01 0.00 0.01 0.01 0.02 0.04 0.17 0.56 0.39 0.28 0.14 0.13 0.09 0.12 0.10 0.10 0.11 0.08 0.11 0.11 0.14 0.05 0.03 0.01 0.00
0.00 0.00 0.00 0.00 0.00 0.02 0.03 0.03 0.02 0.00 0.00 0.00 0.00 0.00 0.01 0.01 0.01 0.02 0.02 0.00 0.00 0.01 0.02 0.21 0.35 0.38 0.74 0.49 0.22 0.14 0.07 0.07 0.08 0.09 0.08 0.07 0.11 0.12 0.18 0.11 0.07 0.03
0.00 0.00 0.00 0.00 0.00 0.00 0.04 0.01 0.01 0.00 0.00 0.00 0.00 0.00 0.00 0.01 0.03 0.08 0.06 0.05 0.05 0.10 0.13 0.32 0.36 0.45 0.56 0.45 0.74 0.75 0.54 0.35 0.31 0.29 0.14 0.09 0.13 0.12 0.13 0.10 0.12 0.14
0.00 0.00 0.00 0.00 0.00 0.00 0.00 0.02 0.01 0.00 0.00 0.00 0.00 0.00 0.00 0.01 0.01 0.01 0.02 0.06 0.11 0.18 0.39 0.70 0.71 0.42 0.35 0.68 1.00 0.95 0.82 0.85 0.54 0.41 0.32 0.28 0.25 0.20 0.18 0.12 0.11 0.14
0.00 0.00 0.00 0.00 0.00 0.00 0.00 0.00 0.04 0.01 0.00 0.00 0.00 0.00 0.00 0.01 0.00 0.02 0.04 0.04 0.06 0.18 0.55 0.81 0.87 0.79 0.43 0.30 0.35 0.70 0.62 0.36 0.36 0.49 0.80 0.67 0.43 0.35 0.34 0.21 0.14 0.21
0.00 0.00 0.00 0.00 0.00 0.00 0.00 0.00 0.01 0.07 0.02 0.01 0.00 0.00 0.01 0.01 0.01 0.01 0.03 0.05 0.06 0.04 0.10 0.50 0.56 0.97 0.68 0.63 0.60 0.48 0.73 0.55 0.57 0.49 0.47 0.45 0.41 0.36 0.27 0.41 0.51 0.56
0.00 0.00 0.00 0.00 0.00 0.00 0.00 0.00 0.00 0.01 0.01 0.05 0.04 0.04 0.02 0.01 0.02 0.04 0.05 0.06 0.07 0.08 0.07 0.17 0.37 0.41 0.79 0.38 0.26 0.17 0.18 0.22 0.31 0.32 0.42 0.57 0.54 0.62 0.65 0.51 0.43 0.28
0.00 0.00 0.00 0.00 0.00 0.00 0.00 0.00 0.00 0.00 0.00 0.09 0.08 0.14 0.25 0.02 0.01 0.02 0.04 0.03 0.05 0.07 0.10 0.05 0.07 0.07 0.03 0.15 0.44 0.43 0.09 0.12 0.16 0.21 0.31 0.46 0.42 0.49 0.37 0.36 0.41 0.36
0.00 0.00 0.00 0.00 0.00 0.00 0.00 0.00 0.00 0.00 0.00 0.00 0.02 0.02 0.09 0.22 0.26 0.38 0.03 0.06 0.11 0.08 0.05 0.05 0.04 0.09 0.04 0.01 0.10 0.62 0.71 0.59 0.66 1.11 0.82 0.53 0.54 0.57 0.49 0.47 0.46 0.40
0.00 0.00 0.00 0.00 0.00 0.00 0.00 0.00 0.00 0.00 0.00 0.00 0.01 0.01 0.01 0.02 0.06 0.12 0.09 0.06 0.06 0.05 0.23 0.06 0.09 0.12 0.14 0.02 0.01 0.16 0.33 0.40 0.44 0.43 0.33 0.40 0.38 0.23 0.24 0.35 0.36 0.47
0.01 0.00 0.00 0.00 0.00 0.00 0.00 0.00 0.00 0.00 0.00 0.00 0.00 0.02 0.03 0.03 0.10 0.10 0.04 0.04 0.13 0.07 0.12 0.16 0.08 0.03 0.01 0.01 0.05 0.08 0.53 0.56 0.42 0.46 0.32 0.30 0.28 0.22 0.22 0.17 0.08 0.11
0.01 0.01 0.01 0.01 0.00 0.00 0.00 0.00 0.00 0.00 0.00 0.00 0.00 0.01 0.01 0.01 0.02 0.02 0.02 0.06 0.22 0.04 0.12 0.31 0.02 0.01 0.02 0.00 0.00 0.03 0.10 0.60 0.69 0.38 0.15 0.09 0.21 0.17 0.16 0.16 0.15 0.13

ECMWFNIL_prec_prec_180.txt.gz
QPF
0.00 0.00 0.00 0.00 0.00 0.00 0.00 0.00 0.00 0.00 0.00 0.00 0.01 0.01 0.01 0.01 0.01 0.01 0.01 0.02 0.03 0.06 0.04 0.02 0.03 0.07 0.03 0.02 0.02 0.03 0.04 0.03 0.04 0.02 0.01 0.00 0.00 0.00 0.00 0.00 0.00 0.00
0.00 0.00 0.00 0.00 0.00 0.00 0.00 0.00 0.00 0.00 0.00 0.00 0.00 0.00 0.00 0.01 0.00 0.01 0.01 0.02 0.01 0.01 0.01 0.01 0.01 0.01 0.01 0.02 0.03 0.08 0.04 0.03 0.02 0.02 0.02 0.01 0.00 0.00 0.00 0.00 0.00 0.00
0.00 0.00 0.00 0.00 0.00 0.00 0.00 0.00 0.00 0.00 0.00 0.00 0.00 0.00 0.00 0.00 0.00 0.01 0.01 0.01 0.01 0.01 0.01 0.01 0.01 0.00 0.00 0.00 0.01 0.02 0.03 0.03 0.02 0.01 0.02 0.01 0.00 0.01 0.00 0.00 0.00 0.00
0.00 0.00 0.00 0.00 0.00 0.00 0.00 0.00 0.00 0.00 0.00 0.02 0.01 0.00 0.00 0.00 0.01 0.01 0.01 0.01 0.01 0.01 0.01 0.02 0.01 0.01 0.01 0.00 0.00 0.01 0.01 0.01 0.01 0.01 0.01 0.02 0.01 0.01 0.01 0.00 0.00 0.00
0.00 0.00 0.00 0.00 0.00 0.00 0.00 0.00 0.00 0.00 0.00 0.00 0.00 0.00 0.00 0.00 0.00 0.01 0.01 0.01 0.01 0.01 0.01 0.03 0.03 0.08 0.07 0.02 0.01 0.01 0.01 0.00 0.00 0.00 0.01 0.01 0.01 0.02 0.00 0.01 0.00 0.00
0.00 0.00 0.00 0.00 0.00 0.00 0.00 0.00 0.00 0.00 0.00 0.00 0.00 0.00 0.00 0.00 0.00 0.00 0.01 0.01 0.02 0.02 0.01 0.02 0.03 0.08 0.08 0.04 0.03 0.02 0.01 0.01 0.00 0.00 0.01 0.01 0.01 0.02 0.01 0.01 0.01 0.00
0.00 0.00 0.00 0.00 0.00 0.00 0.00 0.00 0.00 0.00 0.00 0.00 0.00 0.00 0.00 0.00 0.00 0.00 0.00 0.01 0.01 0.02 0.02 0.02 0.02 0.03 0.07 0.08 0.09 0.06 0.03 0.01 0.00 0.01 0.00 0.00 0.00 0.00 0.01 0.03 0.01 0.00
0.00 0.00 0.00 0.00 0.00 0.00 0.00 0.00 0.00 0.00 0.00 0.00 0.00 0.00 0.00 0.00 0.00 0.00 0.00 0.00 0.01 0.01 0.05 0.04 0.02 0.02 0.02 0.11 0.07 0.17 0.09 0.04 0.01 0.03 0.01 0.00 0.00 0.00 0.00 0.00 0.01 0.00
0.00 0.00 0.00 0.00 0.00 0.00 0.00 0.00 0.00 0.00 0.00 0.00 0.00 0.00 0.00 0.00 0.00 0.00 0.00 0.00 0.00 0.01 0.01 0.03 0.04 0.04 0.02 0.06 0.09 0.09 0.08 0.08 0.04 0.17 0.08 0.01 0.01 0.00 0.00 0.00 0.01 0.00
0.00 0.00 0.00 0.00 0.00 0.00 0.00 0.00 0.00 0.00 0.00 0.00 0.00 0.00 0.00 0.00 0.00 0.00 0.00 0.00 0.01 0.01 0.01 0.01 0.03 0.03 0.03 0.03 0.04 0.04 0.04 0.02 0.09 0.12 0.03 0.07 0.01 0.01 0.00 0.00 0.00 0.00
0.00 0.00 0.00 0.00 0.00 0.00 0.00 0.00 0.00 0.00 0.00 0.00 0.01 0.00 0.00 0.00 0.00 0.00 0.00 0.01 0.01 0.01 0.01 0.01 0.01 0.02 0.04 0.03 0.04 0.05 0.03 0.03 0.01 0.01 0.02 0.01 0.01 0.04 0.02 0.01 0.01 0.00
0.00 0.00 0.00 0.00 0.00 0.00 0.00 0.00 0.00 0.00 0.01 0.00 0.02 0.01 0.01 0.01 0.00 0.00 0.02 0.02 0.03 0.02 0.02 0.01 0.02 0.01 0.01 0.03 0.03 0.03 0.04 0.03 0.03 0.01 0.01 0.00 0.00 0.00 0.00 0.00 0.00 0.00
0.00 0.00 0.00 0.00 0.00 0.00 0.00 0.00 0.01 0.01 0.01 0.01 0.02 0.02 0.01 0.01 0.02 0.02 0.03 0.07 0.09 0.09 0.05 0.04 0.04 0.03 0.02 0.03 0.02 0.02 0.03 0.03 0.02 0.03 0.02 0.01 0.00 0.00 0.00 0.00 0.00 0.00
0.00 0.00 0.00 0.00 0.00 0.00 0.00 0.00 0.01 0.01 0.01 0.01 0.02 0.02 0.02 0.02 0.01 0.02 0.02 0.03 0.04 0.05 0.05 0.06 0.04 0.04 0.03 0.03 0.03 0.02 0.02 0.02 0.03 0.02 0.03 0.02 0.01 0.00 0.00 0.00 0.00 0.00
0.00 0.00 0.00 0.00 0.00 0.00 0.00 0.00 0.00 0.00 0.01 0.01 0.01 0.02 0.02 0.02 0.02 0.01 0.02 0.02 0.02 0.02 0.03 0.04 0.05 0.04 0.04 0.05 0.05 0.06 0.08 0.07 0.04 0.04 0.03 0.03 0.02 0.01 0.01 0.01 0.01 0.00
0.00 0.00 0.00 0.00 0.00 0.00 0.00 0.00 0.00 0.00 0.00 0.00 0.01 0.02 0.02 0.02 0.02 0.02 0.01 0.01 0.01 0.01 0.02 0.02 0.03 0.04 0.03 0.03 0.07 0.10 0.09 0.10 0.09 0.10 0.08 0.06 0.05 0.05 0.04 0.03 0.01 0.00
0.00 0.00 0.00 0.00 0.00 0.00 0.00 0.00 0.00 0.00 0.00 0.00 0.00 0.01 0.01 0.00 0.01 0.02 0.01 0.01 0.01 0.01 0.02 0.01 0.02 0.07 0.02 0.02 0.02 0.02 0.17 0.13 0.18 0.11 0.10 0.08 0.09 0.09 0.04 0.02 0.01 0.03
0.00 0.00 0.00 0.00 0.00 0.00 0.00 0.00 0.00 0.00 0.00 0.00 0.00 0.00 0.00 0.00 0.00 0.00 0.00 0.01 0.00 0.00 0.01 0.01 0.02 0.01 0.02 0.02 0.02 0.02 0.07 0.17 0.12 0.12 0.13 0.18 0.16 0.11 0.09 0.04 0.01 0.00
0.00 0.00 0.00 0.00 0.00 0.00 0.00 0.00 0.00 0.00 0.00 0.00 0.00 0.00 0.00 0.00 0.00 0.00 0.00 0.00 0.01 0.00 0.00 0.00 0.00 0.00 0.01 0.02 0.03 0.03 0.02 0.12 0.16 0.09 0.07 0.04 0.06 0.12 0.16 0.20 0.09 0.06
0.00 0.00 0.00 0.00 0.00 0.00 0.00 0.00 0.00 0.00 0.00 0.00 0.00 0.00 0.00 0.00 0.00 0.00 0.00 0.00 0.00 0.01 0.01 0.01 0.00 0.00 0.01 0.01 0.01 0.01 0.01 0.01 0.08 0.05 0.07 0.04 0.04 0.05 0.05 0.06 0.06 0.08
0.00 0.00 0.00 0.00 0.00 0.00 0.00 0.00 0.00 0.00 0.00 0.00 0.00 0.00 0.00 0.00 0.00 0.00 0.00 0.00 0.00 0.00 0.00 0.00 0.00 0.00 0.00 0.01 0.01 0.01 0.02 0.05 0.19 0.33 0.25 0.11 0.07 0.08 0.09 0.08 0.06 0.05
0.00 0.00 0.00 0.00 0.00 0.00 0.00 0.00 0.00 0.00 0.00 0.00 0.00 0.00 0.00 0.00 0.00 0.00 0.00 0.00 0.00 0.00 0.00 0.00 0.00 0.00 0.00 0.00 0.00 0.00 0.00 0.01 0.01 0.02 0.03 0.05 0.05 0.04 0.04 0.04 0.04 0.05
0.00 0.00 0.00 0.00 0.00 0.00 0.00 0.00 0.00 0.00 0.00 0.00 0.00 0.00 0.00 0.00 0.00 0.00 0.00 0.00 0.00 0.00 0.00 0.00 0.00 0.00 0.00 0.00 0.00 0.00 0.00 0.03 0.02 0.06 0.18 0.11 0.04 0.02 0.02 0.02 0.02 0.02
0.00 0.00 0.00 0.00 0.00 0.00 0.00 0.00 0.00 0.00 0.00 0.00 0.00 0.00 0.00 0.00 0.00 0.00 0.00 0.00 0.00 0.00 0.00 0.00 0.00 0.00 0.00 0.00 0.00 0.00 0.00 0.00 0.00 0.02 0.03 0.05 0.03 0.04 0.04 0.07 0.04 0.09
0.00 0.00 0.00 0.00 0.00 0.00 0.00 0.00 0.00 0.00 0.00 0.00 0.00 0.00 0.00 0.00 0.00 0.00 0.00 0.00 0.00 0.00 0.00 0.00 0.00 0.00 0.00 0.00 0.00 0.00 0.00 0.00 0.01 0.03 0.05 0.04 0.03 0.03 0.03 0.07 0.05 0.07
0.00 0.00 0.00 0.00 0.00 0.00 0.00 0.00 0.01 0.00 0.00 0.00 0.00 0.00 0.00 0.00 0.00 0.00 0.00 0.00 0.00 0.00 0.00 0.00 0.00 0.00 0.00 0.00 0.02 0.02 0.08 0.24 0.03 0.06 0.07 0.04 0.03 0.03 0.02 0.02 0.01 0.01

ECMWFNIL_prec_prec_186.txt.gz
QPF
0.00 0.00 0.00 0.00 0.00 0.00 0.00 0.00 0.00 0.00 0.00 0.00 0.00 0.00 0.00 0.00 0.00 0.00 0.00 0.00 0.00 0.00 0.01 0.00 0.01 0.02 0.03 0.05 0.04 0.04 0.10 0.10 0.14 0.13 0.14 0.34 0.31 0.25 0.19 0.05 0.13 0.27
0.00 0.00 0.00 0.00 0.00 0.00 0.00 0.00 0.00 0.00 0.00 0.00 0.00 0.00 0.00 0.00 0.00 0.00 0.00 0.00 0.00 0.00 0.00 0.01 0.01 0.01 0.02 0.03 0.03 0.04 0.04 0.07 0.16 0.05 0.17 0.19 0.20 0.18 0.10 0.07 0.10 0.27
0.00 0.00 0.00 0.00 0.00 0.00 0.00 0.00 0.00 0.00 0.00 0.00 0.00 0.00 0.00 0.00 0.00 0.00 0.00 0.00 0.00 0.00 0.00 0.00 0.01 0.01 0.01 0.02 0.03 0.03 0.03 0.04 0.05 0.04 0.07 0.07 0.12 0.12 0.22 0.17 0.19 0.11
0.00 0.00 0.00 0.00 0.00 0.00 0.00 0.00 0.00 0.00 0.00 0.00 0.00 0.00 0.00 0.00 0.00 0.00 0.00 0.00 0.00 0.00 0.00 0.00 0.00 0.01 0.01 0.01 0.02 0.02 0.03 0.03 0.04 0.05 0.07 0.10 0.13 0.15 0.35 0.17 0.39 0.34
0.00 0.00 0.00 0.00 0.00 0.00 0.00 0.00 0.00 0.00 0.00 0.00 0.00 0.00 0.00 0.00 0.00 0.00 0.00 0.00 0.00 0.00 0.00 0.00 0.00 0.00 0.01 0.01 0.02 0.03 0.03 0.04 0.04 0.04 0.05 0.06 0.10 0.10 0.13 0.29 0.33 0.25
0.00 0.00 0.00 0.00 0.00 0.00 0.00 0.00 0.00 0.00 0.00 0.00 0.00 0.00 0.00 0.00 0.00 0.00 0.00 0.00 0.00 0.00 0.00 0.00 0.00 0.00 0.01 0.01 0.01 0.02 0.03 0.03 0.02 0.03 0.05 0.05 0.06 0.10 0.16 0.13 0.22 0.20
0.00 0.00 0.00 0.00 0.00 0.00 0.00 0.00 0.00 0.00 0.00 0.00 0.00 0.00 0.00 0.00 0.00 0.00 0.00 0.00 0.00 0.00 0.00 0.00 0.00 0.00 0.00 0.02 0.02 0.03 0.02 0.02 0.02 0.03 0.06 0.07 0.05 0.08 0.11 0.10 0.17 0.31
0.00 0.00 0.00 0.00 0.00 0.00 0.00 0.00 0.00 0.00 0.00 0.00 0.00 0.00 0.00 0.00 0.00 0.00 0.00 0.00 0.00 0.00 0.00 0.00 0.00 0.00 0.00 0.02 0.03 0.01 0.04 0.05 0.03 0.02 0.02 0.03 0.03 0.10 0.10 0.16 0.15 0.16
0.00 0.00 0.00 0.00 0.00 0.00 0.00 0.00 0.00 0.00 0.00 0.00 0.00 0.00 0.00 0.00 0.00 0.00 0.00 0.00 0.00 0.00 0.00 0.00 0.00 0.00 0.00 0.01 0.02 0.03 0.02 0.04 0.03 0.03 0.03 0.04 0.03 0.02 0.02 0.04 0.16 0.08
0.00 0.00 0.00 0.00 0.00 0.00 0.00 0.00 0.00 0.00 0.00 0.00 0.00 0.00 0.00 0.00 0.00 0.00 0.00 0.00 0.01 0.01 0.01 0.00 0.00 0.00 0.00 0.00 0.01 0.01 0.02 0.03 0.02 0.04 0.03 0.04 0.02 0.03 0.02 0.02 0.03 0.09
0.00 0.00 0.00 0.00 0.00 0.00 0.00 0.00 0.00 0.00 0.00 0.00 0.00 0.00 0.00 0.00 0.00 0.00 0.00 0.00 0.00 0.00 0.00 0.01 0.01 0.01 0.01 0.01 0.01 0.01 0.03 0.02 0.06 0.03 0.02 0.02 0.02 0.02 0.02 0.04 0.04 0.09
0.00 0.00 0.00 0.00 0.00 0.00 0.00 0.00 0.00 0.00 0.00 0.00 0.00 0.00 0.00 0.00 0.00 0.00 0.00 0.00 0.00 0.01 0.01 0.01 0.01 0.01 0.03 0.03 0.03 0.02 0.05 0.03 0.05 0.05 0.02 0.02 0.03 0.03 0.02 0.02 0.03 0.03
0.00 0.00 0.00 0.00 0.00 0.00 0.00 0.00 0.00 0.00 0.00 0.00 0.00 0.00 0.00 0.00 0.00 0.00 0.00 0.00 0.00 0.02 0.04 0.05 0.07 0.04 0.03 0.03 0.03 0.05 0.03 0.04 0.05 0.08 0.07 0.05 0.02 0.02 0.03 0.02 0.02 0.02
0.00 0.00 0.00 0.00 0.00 0.00 0.00 0.00 0.00 0.00 0.00 0.00 0.00 0.00 0.00 0.00 0.00 0.00 0.00 0.00 0.00 0.00 0.02 0.04 0.07 0.09 0.09 0.06 0.06 0.06 0.03 0.04 0.06 0.07 0.07 0.07 0.05 0.04 0.05 0.03 0.02 0.02
0.00 0.00 0.00 0.00 0.00 0.00 0.00 0.00 0.00 0.00 0.00 0.00 0.00 0.00 0.00 0.00 0.00 0.00 0.00 0.00 0.00 0.00 0.00 0.01 0.02 0.05 0.11 0.14 0.14 0.10 0.11 0.09 0.10 0.12 0.08 0.07 0.05 0.04 0.05 0.04 0.04 0.04
0.00 0.00 0.00 0.00 0.00 0.00 0.00 0.00 0.00 0.00 0.00 0.00 0.00 0.00 0.00 0.00 0.00 0.00 0.01 0.00 0.00 0.00 0.00 0.00 0.01 0.02 0.02 0.04 0.08 0.12 0.09 0.08 0.05 0.04 0.05 0.08 0.07 0.07 0.07 0.07 0.04 0.04
0.00 0.00 0.00 0.00 0.00 0.00 0.00 0.00 0.00 0.00 0.00 0.00 0.00 0.00 0.00 0.00 0.00 0.00 0.01 0.01 0.01 0.00 0.00 0.00 0.00 0.00 0.00 0.00 0.00 0.00 0.05 0.07 0.05 0.05 0.05 0.03 0.02 0.03 0.05 0.05 0.15 0.11
0.00 0.00 0.00 0.00 0.00 0.00 0.00 0.00 0.00 0.00 0.00 0.00 0.00 0.00 0.00 0.00 0.00 0.00 0.00 0.00 0.01 0.01 0.01 0.00 0.00 0.00 0.00 0.00 0.00 0.00 0.00 0.00 0.01 0.01 0.02 0.02 0.02 0.02 0.02 0.03 0.03 0.05
0.00 0.00 0.00 0.00 0.00 0.00 0.00 0.00 0.00 0.00 0.00 0.00 0.00 0.00 0.01 0.01 0.00 0.00 0.00 0.00 0.00 0.00 0.00 0.00 0.00 0.00 0.00 0.00 0.00 0.00 0.00 0.00 0.00 0.00 0.00 0.00 0.01 0.01 0.02 0.03 0.03 0.05
0.00 0.00 0.00 0.00 0.00 0.00 0.00 0.00 0.00 0.00 0.00 0.01 0.01 0.01 0.01 0.01 0.00 0.00 0.00 0.00 0.00 0.00 0.00 0.00 0.00 0.00 0.00 0.00 0.00 0.00 0.00 0.00 0.00 0.00 0.00 0.00 0.00 0.00 0.01 0.02 0.04 0.05
0.00 0.00 0.00 0.00 0.00 0.00 0.00 0.00 0.00 0.00 0.00 0.01 0.01 0.01 0.01 0.01 0.00 0.00 0.00 0.00 0.00 0.00 0.00 0.00 0.00 0.00 0.00 0.00 0.00 0.00 0.00 0.00 0.00 0.00 0.00 0.00 0.00 0.00 0.00 0.00 0.00 0.01
0.00 0.00 0.00 0.00 0.00 0.00 0.00 0.00 0.00 0.01 0.01 0.01 0.02 0.01 0.01 0.00 0.00 0.00 0.00 0.00 0.00 0.00 0.00 0.00 0.00 0.00 0.00 0.00 0.00 0.00 0.00 0.00 0.00 0.00 0.00 0.00 0.00 0.00 0.00 0.00 0.00 0.00
0.00 0.00 0.00 0.00 0.00 0.00 0.00 0.00 0.00 0.00 0.01 0.01 0.01 0.01 0.00 0.00 0.00 0.00 0.00 0.00 0.00 0.00 0.00 0.00 0.00 0.00 0.00 0.00 0.00 0.00 0.00 0.00 0.00 0.00 0.00 0.00 0.00 0.00 0.00 0.00 0.00 0.00
0.00 0.00 0.00 0.00 0.00 0.00 0.00 0.00 0.00 0.01 0.01 0.01 0.00 0.00 0.00 0.00 0.00 0.00 0.00 0.00 0.00 0.00 0.00 0.00 0.00 0.00 0.00 0.00 0.00 0.00 0.00 0.01 0.01 0.01 0.00 0.00 0.00 0.00 0.00 0.00 0.00 0.00
0.00 0.00 0.00 0.00 0.00 0.00 0.00 0.00 0.00 0.01 0.01 0.00 0.00 0.00 0.00 0.00 0.00 0.00 0.00 0.00 0.00 0.00 0.00 0.00 0.00 0.00 0.00 0.00 0.00 0.00 0.01 0.03 0.03 0.03 0.02 0.01 0.00 0.00 0.00 0.00 0.00 0.00
0.00 0.00 0.00 0.00 0.00 0.00 0.00 0.00 0.01 0.00 0.00 0.00 0.00 0.00 0.00 0.00 0.00 0.00 0.00 0.00 0.00 0.00 0.00 0.00 0.00 0.00 0.00 0.01 0.01 0.01 0.02 0.03 0.02 0.02 0.02 0.02 0.01 0.01 0.00 0.00 0.00 0.00